• In Uzbekistan
  • List of Countries
  • For 7 days
  • Water Temperature
  • Satellite Maps
  • Weather Map
  • Weather Widgets
  • user-avatar
    Login

    Hourly Weather Satif

    Today, 25 July, Tuesday

    Time Temperature Precipitation Wind Pressure Humidity
    00:00 +23°C° 0 mm 2 mps 673 mmHg 76%
    01:00 +23°C° 0 mm 2 mps 673 mmHg 77%
    02:00 +21°C° 0 mm 2 mps 672 mmHg 77%
    03:00 +21°C° 0 mm 2 mps 672 mmHg 77%
    04:00 +21°C° 0 mm 2 mps 672 mmHg 76%
    05:00 +21°C° 0 mm 2 mps 672 mmHg 74%
    06:00 +21°C° 0 mm 2 mps 672 mmHg 75%
    07:00 +23°C° 0 mm 2 mps 673 mmHg 65%
    08:00 +24°C° 0 mm 2 mps 673 mmHg 55%
    09:00 +26°C° 0 mm 2 mps 673 mmHg 45%
    10:00 +27°C° 0 mm 2 mps 674 mmHg 41%
    11:00 +28°C° 0 mm 2 mps 674 mmHg 36%
    12:00 +30°C° 0 mm 3 mps 674 mmHg 33%
    13:00 +30°C° 0 mm 3 mps 674 mmHg 33%
    14:00 +30°C° 0 mm 3 mps 674 mmHg 32%
    15:00 +32°C° 0 mm 4 mps 673 mmHg 32%
    16:00 +30°C° 0 mm 4 mps 673 mmHg 36%
    17:00 +29°C° 0 mm 4 mps 673 mmHg 40%
    18:00 +28°C° 0 mm 4 mps 672 mmHg 45%
    19:00 +27°C° 0 mm 4 mps 672 mmHg 51%
    20:00 +25°C° 0 mm 3 mps 672 mmHg 58%
    21:00 +24°C° 0 mm 3 mps 672 mmHg 64%
    22:00 +22°C° 0 mm 3 mps 672 mmHg 66%
    23:00 +23°C° 0 mm 2 mps 672 mmHg 68%

    Tomorrow, 26 July, Wednesday

    Time Temperature Precipitation Wind Pressure Humidity
    00:00 +21°C° 0 mm 2 mps 672 mmHg 70%
    01:00 +21°C° 0 mm 2 mps 672 mmHg 71%
    02:00 +20°C° 0 mm 2 mps 672 mmHg 73%
    03:00 +20°C° 0 mm 2 mps 671 mmHg 74%
    04:00 +20°C° 0 mm 2 mps 672 mmHg 74%
    05:00 +20°C° 0 mm 2 mps 672 mmHg 74%
    06:00 +21°C° 0 mm 1 mps 672 mmHg 73%
    07:00 +22°C° 0 mm 1 mps 672 mmHg 64%
    08:00 +23°C° 0 mm 1 mps 672 mmHg 55%
    09:00 +25°C° 0 mm 1 mps 673 mmHg 46%
    10:00 +26°C° 0 mm 2 mps 673 mmHg 40%
    11:00 +28°C° 0 mm 3 mps 674 mmHg 34%
    12:00 +29°C° 0 mm 4 mps 674 mmHg 27%
    13:00 +29°C° 0 mm 4 mps 674 mmHg 27%
    14:00 +30°C° 0 mm 5 mps 673 mmHg 27%
    15:00 +30°C° 0 mm 5 mps 673 mmHg 27%
    16:00 +29°C° 0 mm 5 mps 673 mmHg 30%
    17:00 +28°C° 0 mm 5 mps 673 mmHg 34%
    18:00 +27°C° 0 mm 5 mps 673 mmHg 37%
    19:00 +26°C° 0 mm 4 mps 673 mmHg 41%
    20:00 +25°C° 0 mm 3 mps 673 mmHg 45%
    21:00 +24°C° 0 mm 2 mps 674 mmHg 49%
    22:00 +23°C° 0 mm 2 mps 673 mmHg 50%
    23:00 +23°C° 0 mm 2 mps 673 mmHg 51%

    Day after tomorrow, 27 July, Thursday

    Time Temperature Precipitation Wind Pressure Humidity
    00:00 +22°C° 0 mm 1 mps 673 mmHg 53%
    01:00 +22°C° 0 mm 1 mps 673 mmHg 54%
    02:00 +22°C° 0 mm 1 mps 673 mmHg 55%
    03:00 +21°C° 0 mm 1 mps 673 mmHg 56%
    04:00 +21°C° 0 mm 1 mps 673 mmHg 55%
    05:00 +21°C° 0 mm 1 mps 673 mmHg 54%
    06:00 +19°C° 0 mm 0 mps 674 mmHg 52%
    07:00 +21°C° 0 mm 0 mps 674 mmHg 46%
    08:00 +22°C° 0 mm 0 mps 675 mmHg 41%
    09:00 +24°C° 0 mm 0 mps 675 mmHg 35%
    10:00 +27°C° 0 mm 1 mps 675 mmHg 31%
    11:00 +28°C° 0 mm 1 mps 676 mmHg 28%
    12:00 +29°C° 0 mm 2 mps 676 mmHg 25%
    13:00 +30°C° 0 mm 2 mps 676 mmHg 24%
    14:00 +31°C° 0 mm 2 mps 675 mmHg 24%
    15:00 +31°C° 0 mm 2 mps 675 mmHg 23%
    16:00 +31°C° 0 mm 3 mps 675 mmHg 25%
    17:00 +30°C° 0 mm 3 mps 675 mmHg 27%
    18:00 +30°C° 0 mm 3 mps 675 mmHg 28%
    19:00 +29°C° 0 mm 3 mps 675 mmHg 32%
    20:00 +28°C° 0 mm 2 mps 675 mmHg 35%
    21:00 +27°C° 0 mm 2 mps 675 mmHg 38%
    22:00 +26°C° 0 mm 2 mps 675 mmHg 39%
    23:00 +26°C° 0 mm 1 mps 675 mmHg 40%

    28 July, Friday

    Time Temperature Precipitation Wind Pressure Humidity
    00:00 +26°C° 0 mm 1 mps 675 mmHg 41%
    01:00 +25°C° 0 mm 1 mps 674 mmHg 42%
    02:00 +25°C° 0 mm 1 mps 674 mmHg 43%
    03:00 +25°C° 0 mm 1 mps 674 mmHg 44%
    04:00 +25°C° 0 mm 1 mps 674 mmHg 42%
    05:00 +26°C° 0 mm 1 mps 675 mmHg 40%
    06:00 +26°C° 0 mm 1 mps 675 mmHg 37%
    07:00 +28°C° 0 mm 1 mps 676 mmHg 33%
    08:00 +30°C° 0 mm 2 mps 676 mmHg 29%
    09:00 +31°C° 0 mm 2 mps 677 mmHg 25%
    10:00 +33°C° 0 mm 3 mps 677 mmHg 23%
    11:00 +34°C° 0 mm 3 mps 677 mmHg 21%
    12:00 +35°C° 0 mm 3 mps 677 mmHg 20%
    13:00 +35°C° 0 mm 3 mps 677 mmHg 19%
    14:00 +36°C° 0 mm 3 mps 677 mmHg 18%
    15:00 +36°C° 0 mm 4 mps 677 mmHg 17%
    16:00 +36°C° 0 mm 3 mps 676 mmHg 18%
    17:00 +35°C° 0 mm 3 mps 676 mmHg 19%
    18:00 +34°C° 0 mm 2 mps 676 mmHg 21%
    19:00 +32°C° 0 mm 2 mps 676 mmHg 24%
    20:00 +31°C° 0 mm 2 mps 676 mmHg 27%
    21:00 +30°C° 0 mm 2 mps 676 mmHg 30%
    22:00 +29°C° 0 mm 2 mps 676 mmHg 31%
    23:00 +29°C° 0 mm 1 mps 676 mmHg 32%

    29 July, Saturday

    Time Temperature Precipitation Wind Pressure Humidity
    00:00 +28°C° 0 mm 1 mps 675 mmHg 33%
    01:00 +28°C° 0 mm 1 mps 675 mmHg 33%
    02:00 +28°C° 0 mm 1 mps 675 mmHg 34%
    03:00 +27°C° 0 mm 2 mps 675 mmHg 34%
    04:00 +28°C° 0 mm 2 mps 675 mmHg 33%
    05:00 +28°C° 0 mm 2 mps 675 mmHg 33%
    06:00 +29°C° 0 mm 2 mps 675 mmHg 33%
    07:00 +30°C° 0 mm 3 mps 676 mmHg 29%
    08:00 +33°C° 0 mm 4 mps 677 mmHg 26%
    09:00 +35°C° 0 mm 5 mps 677 mmHg 23%
    10:00 +36°C° 0 mm 5 mps 677 mmHg 21%
    11:00 +36°C° 0 mm 5 mps 677 mmHg 20%
    12:00 +38°C° 0 mm 6 mps 677 mmHg 19%
    13:00 +39°C° 0 mm 5 mps 677 mmHg 18%
    14:00 +39°C° 0 mm 5 mps 677 mmHg 18%
    15:00 +38°C° 0 mm 4 mps 676 mmHg 17%
    16:00 +37°C° 0 mm 4 mps 676 mmHg 18%
    17:00 +37°C° 0 mm 4 mps 676 mmHg 20%
    18:00 +36°C° 0 mm 3 mps 676 mmHg 21%
    19:00 +35°C° 0 mm 2 mps 676 mmHg 23%
    20:00 +34°C° 0 mm 2 mps 676 mmHg 26%
    21:00 +31°C° 0 mm 1 mps 676 mmHg 28%
    22:00 +31°C° 0 mm 1 mps 676 mmHg 29%
    23:00 +30°C° 0 mm 1 mps 675 mmHg 29%

    30 July, Sunday

    Time Temperature Precipitation Wind Pressure Humidity
    00:00 +30°C° 0 mm 1 mps 675 mmHg 30%
    01:00 +30°C° 0 mm 1 mps 675 mmHg 30%
    02:00 +29°C° 0 mm 2 mps 674 mmHg 31%
    03:00 +29°C° 0 mm 2 mps 674 mmHg 31%
    04:00 +29°C° 0 mm 2 mps 674 mmHg 32%
    05:00 +29°C° 0 mm 2 mps 675 mmHg 32%
    06:00 +29°C° 0 mm 3 mps 675 mmHg 32%
    07:00 +31°C° 0 mm 3 mps 676 mmHg 29%
    08:00 +33°C° 0 mm 4 mps 676 mmHg 26%
    09:00 +34°C° 0 mm 5 mps 676 mmHg 23%
    10:00 +35°C° 0 mm 5 mps 676 mmHg 22%
    11:00 +36°C° 0 mm 4 mps 676 mmHg 21%
    12:00 +37°C° 0 mm 4 mps 676 mmHg 20%
    13:00 +37°C° 0 mm 4 mps 676 mmHg 20%
    14:00 +37°C° 0 mm 4 mps 676 mmHg 20%
    15:00 +37°C° 0 mm 4 mps 675 mmHg 20%
    16:00 +37°C° 0 mm 3 mps 675 mmHg 22%
    17:00 +36°C° 0 mm 3 mps 675 mmHg 23%
    18:00 +36°C° 0 mm 2 mps 675 mmHg 25%
    19:00 +35°C° 0 mm 2 mps 675 mmHg 27%
    20:00 +34°C° 0 mm 2 mps 675 mmHg 29%
    21:00 +32°C° 0 mm 1 mps 675 mmHg 31%
    22:00 +31°C° 0 mm 1 mps 674 mmHg 31%
    23:00 +31°C° 0 mm 2 mps 674 mmHg 32%
    Show more